Regional Weather Roundup
Issued by NWS

Home | Current Version | Previous Version | Graphics & Text | Print | Product List | Glossary On
Versions: 1 2 3 4 5 6 7 8 9 10 11 12 13 14 15 16 17 18 19 20 21 22 23 24 25 26 27 28 29 30 31 32 33 34 35 36 37 38 39 40 41 42 43 44 45 46 47 48 49 50
631
ASUS45 KBOI 262110
RWRID

IDAHO REGIONAL WEATHER ROUNDUP
NATIONAL WEATHER SERVICE BOISE ID
300 PM MDT FRI AUG 26 2016

NOTE: "FAIR" INDICATES FEW OR NO CLOUDS BELOW 12000 FEET
WITH NO SIGNIFICANT WEATHER AND/OR OBSTRUCTIONS TO VISIBILITY

IDZ012-014-262200-
SOUTHWEST IDAHO


CITY           SKY/WX    TMP DP  RH WIND       PRES   REMARKS
BOISE          SUNNY     83  36  18 NW7       29.97F
CALDWELL       SUNNY     83  39  21 NW7       29.96F
MOUNTAIN HOME  MOSUNNY   81  36  19 W3        29.97F
$$

IDZ016-017-262200-
SOUTHCENTRAL IDAHO


CITY           SKY/WX    TMP DP  RH WIND       PRES   REMARKS
BURLEY         MOSUNNY   73  36  25 W12       30.02S
JEROME         PTSUNNY   73  39  29 W8        30.03F
TWIN FALLS     PTSUNNY   78  33  19 W10G22    30.03F
$$

IDZ019>023-262200-
SOUTHEAST IDAHO


CITY           SKY/WX    TMP DP  RH WIND       PRES   REMARKS
IDAHO FALLS    CLOUDY    74  32  21 S15       30.03F
POCATELLO      MOSUNNY   79  29  16 W10       30.03F
REXBURG        CLOUDY    76  30  18 SW14G20   30.03F
$$

IDZ006-010-011-018-031-032-262200-
CENTRAL IDAHO MOUNTAINS


CITY           SKY/WX    TMP DP  RH WIND       PRES   REMARKS
MCCALL         SUNNY     75  27  17 W9        30.06F
HAILEY         MOSUNNY   72  37  28 SE9       30.07F
STANLEY          N/A     71  28  20 W8        30.11F
SALMON         MOSUNNY   75  34  22 CALM      29.98F
CHALLIS        MOSUNNY   75  28  17 E6        30.01F
$$

IDZ002-004-006-007-026-262200-
NORTHERN IDAHO


CITY           SKY/WX    TMP DP  RH WIND       PRES   REMARKS
LEWISTON       SUNNY     88  36  15 N6        29.91F
LOWELL           N/A     86  37  17 S3        29.91F
COEUR D`ALENE  SUNNY     82  39  21 W10       29.93F
MULLAN PASS    CLOUDY    63  33  32 VRB7      30.12F
$$




USA.gov is the U.S. government's official web portal to all federal, state and local government web resources and services.